Theta_e
342 344 346 346 347 346 346 349 348 348 346 343 340 346 346 344 347 347 346 344 343 343 343 344 344 344 345 345 345 346 346 346 346 346 346 345 345 344 345 344 343 342 342 341 340 341 340 340 341 339 338 337 340 333 331 331 332 334 333 336 337 333
340 342 344 345 346 346 346 346 343 344 345 342 343 343 341 341 343 342 345 343 342 344 340 339 341 346 343 345 344 346 345 344 345 346 345 345 344 344 344 344 343 342 341 340 339 331 335 339 339 337 337 335 331 330 331 331 332 332 333 335 335 336
337 340 342 343 344 346 344 344 343 340 344 341 338 342 339 340 338 341 341 341 342 341 339 341 341 342 343 345 344 344 343 342 345 345 345 345 344 344 344 343 343 342 340 338 330 327 327 327 332 335 332 328 328 329 330 330 331 332 333 334 333 338
336 337 339 341 343 343 343 344 343 342 339 339 341 338 338 336 337 340 338 340 340 338 338 339 346 347 346 343 343 343 343 343 343 341 345 344 344 343 343 343 342 341 338 333 327 327 327 325 325 324 327 327 328 328 329 329 330 331 331 336 332 338
334 335 337 338 341 341 341 342 343 343 342 341 341 340 335 336 334 336 338 340 338 337 336 336 337 339 339 337 336 337 337 340 338 338 343 339 339 340 340 337 336 336 333 332 329 325 328 328 327 326 327 326 327 327 328 330 329 330 331 335 334 338
334 333 334 338 338 341 342 340 340 342 342 342 342 340 337 336 335 337 338 339 337 334 335 335 333 333 336 337 338 335 336 337 336 337 339 337 337 336 335 335 336 335 333 333 332 329 330 329 326 325 326 326 326 328 328 328 329 330 330 332 335 338
330 331 333 338 339 339 337 338 340 340 340 338 340 339 337 335 334 335 336 335 334 334 335 335 333 332 335 337 338 338 338 337 337 336 337 338 337 337 336 335 335 333 332 332 332 331 326 327 326 327 326 326 326 327 327 328 328 329 330 331 333 338
328 330 330 335 336 335 335 336 338 341 339 341 338 335 335 334 332 334 336 336 337 335 335 334 334 333 334 334 338 339 340 339 338 338 337 338 336 336 335 334 333 331 331 331 331 330 328 327 326 327 328 326 327 326 326 327 328 328 329 330 332 337
329 331 330 331 333 334 334 333 332 334 335 341 330 331 332 333 334 336 337 336 336 333 334 335 334 334 334 332 335 339 340 339 338 338 336 335 336 335 333 332 331 330 328 327 326 327 327 327 326 326 327 327 326 326 325 326 327 327 328 329 330 334
330 330 329 330 331 332 331 329 329 333 335 337 328 330 332 331 332 335 336 335 335 334 335 335 334 335 334 334 333 335 338 338 337 337 335 334 334 334 332 330 328 327 327 325 326 326 328 326 326 328 327 327 326 327 327 325 326 327 328 329 330 332
329 333 328 329 328 329 330 329 331 331 332 331 334 334 331 330 330 331 334 337 337 337 336 336 335 334 335 335 333 330 335 338 337 336 335 334 332 332 331 330 328 328 326 325 326 326 327 326 325 327 328 328 327 327 327 327 326 326 327 329 329 331
327 328 329 328 330 327 328 330 333 330 328 331 334 332 329 329 333 329 332 335 337 337 337 336 335 334 334 334 334 331 334 336 336 336 336 334 331 331 331 331 330 328 327 326 326 325 325 325 325 325 326 328 328 327 327 327 326 326 327 328 328 330
324 326 326 327 327 325 326 330 330 329 329 332 332 330 329 328 328 330 332 330 335 337 337 336 335 334 333 331 332 332 334 335 334 335 335 334 333 331 331 330 329 329 328 326 325 326 326 325 324 325 326 327 328 328 328 327 327 326 326 328 328 329
322 324 325 324 323 322 321 323 326 323 328 324 323 326 329 327 331 331 331 332 333 335 335 334 334 332 332 331 330 330 333 333 332 331 332 334 333 332 331 330 329 329 330 328 326 327 326 325 325 325 326 326 328 328 328 327 327 327 327 327 328 329
322 321 324 321 320 318 316 320 318 316 319 319 319 320 320 322 325 327 329 329 331 332 332 332 331 330 332 333 330 330 331 331 330 331 331 330 331 332 332 331 331 330 330 329 328 328 326 325 325 325 326 327 327 327 327 327 327 326 326 327 328 328
318 319 318 318 313 314 313 311 314 322 317 317 318 317 317 319 323 328 329 330 332 333 334 333 331 331 329 331 330 330 330 330 330 330 330 330 331 332 332 332 331 331 329 328 328 328 327 326 325 324 325 326 327 328 327 326 326 326 327 327 327 328
316 317 315 312 310 309 309 309 310 312 314 314 315 315 316 317 321 322 323 326 330 333 333 332 333 333 330 328 329 328 329 330 331 331 330 330 330 331 330 330 331 331 331 328 329 328 327 324 323 323 324 325 326 327 327 327 326 327 327 326 326 327
315 315 313 311 309 310 310 311 311 314 318 313 312 314 316 319 319 318 320 321 324 331 333 333 334 333 330 330 329 329 329 330 331 331 331 331 332 333 331 330 330 330 331 330 329 328 327 327 328 328 326 324 325 326 326 327 327 328 327 327 326 327
313 310 310 310 312 310 310 311 310 312 313 313 314 315 316 317 316 318 318 319 323 326 330 331 333 333 331 330 329 328 328 330 330 330 330 330 332 333 332 329 328 328 330 330 329 329 328 326 327 327 328 327 324 325 327 327 327 327 327 327 327 328
310 309 310 311 311 310 310 312 312 311 313 313 313 317 313 313 315 317 319 319 320 321 324 325 326 328 328 328 327 327 324 326 328 329 329 329 329 330 329 327 328 328 328 329 331 331 329 328 327 326 326 326 324 324 324 326 326 326 327 327 327 329
308 310 311 310 309 308 308 306 307 308 308 308 312 312 312 311 313 315 316 318 319 318 318 320 320 320 321 326 323 323 322 321 325 328 327 327 328 328 330 329 330 329 328 325 327 330 330 329 326 323 323 323 323 324 324 325 325 326 326 327 327 328
308 310 310 310 311 308 305 307 307 308 305 308 310 310 310 311 313 315 314 313 314 313 315 318 321 319 318 318 319 320 322 323 324 326 327 328 329 329 329 329 329 327 329 327 326 327 327 328 323 320 319 318 321 322 323 323 323 323 325 326 326 326
308 310 309 312 310 308 305 307 305 305 310 307 305 308 308 313 313 311 310 311 312 311 313 315 318 320 317 316 316 317 318 320 321 324 322 323 323 324 325 327 326 324 323 326 326 327 327 326 321 322 320 319 314 314 318 320 321 322 323 324 326 325
308 309 310 313 313 307 308 306 307 307 305 305 306 313 308 308 309 310 310 309 311 309 312 313 315 317 316 315 315 316 316 317 317 320 320 320 320 322 324 325 327 326 325 323 324 324 327 326 324 321 316 316 316 313 312 316 316 320 321 322 323 324
309 309 310 315 311 310 311 309 309 307 308 308 308 307 308 307 307 315 311 309 309 310 311 313 313 315 317 313 313 314 316 316 316 316 317 317 317 317 319 322 324 326 326 325 324 324 325 326 325 327 321 315 313 312 313 315 318 319 320 320 321 322
308 309 310 311 309 310 311 309 308 305 303 303 303 304 304 307 307 307 307 308 308 309 310 310 311 314 317 315 313 313 314 315 315 315 316 315 315 316 316 316 318 321 322 324 325 323 322 325 328 326 325 324 320 315 315 318 318 314 321 321 321 322
309 309 310 310 308 311 308 309 309 307 304 304 304 303 302 303 307 305 306 307 307 308 309 310 311 312 313 314 312 313 314 314 314 315 316 314 314 314 315 315 317 316 318 320 322 318 319 320 325 325 325 326 325 324 324 319 315 316 314 319 322 322
309 311 310 310 308 309 308 308 308 305 305 303 304 305 304 303 304 308 306 307 308 307 308 310 310 311 313 315 313 312 312 314 314 314 315 312 312 312 313 314 315 314 315 316 318 318 317 319 317 317 321 323 324 325 324 324 322 318 316 314 317 323
309 311 309 309 309 307 310 308 309 307 305 306 304 305 307 309 307 308 305 306 307 306 307 308 309 311 312 314 315 311 311 311 311 312 313 311 311 311 311 311 311 312 312 313 315 316 315 315 317 316 317 317 320 320 322 325 325 323 318 314 315 317
308 310 310 309 309 307 307 310 307 306 306 305 307 304 305 305 304 304 306 305 306 306 307 308 308 310 311 311 311 311 310 310 310 312 312 308 309 309 309 309 309 310 311 311 312 313 313 313 314 315 316 316 315 315 316 319 321 320 320 320 315 316
309 310 310 309 308 307 306 308 307 306 306 305 304 304 304 303 303 303 305 305 305 305 306 306 309 308 309 310 311 313 310 310 311 313 310 308 308 308 308 308 308 308 309 309 310 310 310 311 312 312 312 313 313 314 313 313 314 316 316 315 315 316
308 308 309 309 307 306 306 307 306 307 306 306 305 305 305 305 305 305 304 305 303 305 306 307 306 308 308 309 310 309 311 308 308 307 307 308 308 307 307 307 307 308 308 308 309 310 309 309 309 309 310 312 312 313 313 313 314 316 315 316 315 314
307 308 308 308 307 306 306 307 307 306 307 307 306 306 305 305 305 305 304 304 304 305 305 308 306 307 307 307 308 306 306 307 307 308 307 307 306 306 306 306 306 306 307 307 307 307 307 307 308 308 308 310 311 312 311 313 314 314 315 316 316 314
307 308 308 307 307 305 306 307 307 307 307 308 306 306 305 305 305 306 305 306 306 307 307 308 307 307 307 308 308 309 307 306 307 308 307 306 306 306 306 306 305 305 306 306 306 306 306 307 307 307 308 308 309 310 310 311 312 313 312 312 311 311
307 308 308 307 307 305 306 307 307 307 307 307 306 306 305 306 306 305 304 306 306 306 307 307 308 308 308 307 307 305 306 306 306 305 305 306 305 305 305 306 306 305 307 305 305 306 305 305 305 305 306 307 308 308 309 310 311 311 311 311 310 310
307 308 308 308 307 306 306 306 306 307 307 308 309 307 306 307 306 306 306 306 306 306 307 307 306 307 307 307 306 307 307 305 305 305 306 304 304 304 304 304 303 303 304 308 304 304 304 304 304 304 305 305 305 306 307 308 309 309 309 310 311 311
307 307 308 308 308 307 306 305 306 307 307 307 307 305 305 305 305 305 306 306 306 307 306 306 307 307 307 305 305 306 305 304 304 304 304 304 304 303 303 303 302 302 303 303 306 303 303 303 303 304 304 304 304 305 305 307 307 307 308 308 309 310
Wind_Speed
5 6 4 4 4 4 4 9 7 9 10 7 2 6 6 6 5 9 7 6 6 5 4 5 6 5 9 5 7 8 9 10 11 11 11 10 8 5 4 6 8 11 10 7 5 3 9 9 9 7 6 5 7 6 5 5 4 4 4 3 4 4
4 4 5 3 3 3 2 4 2 4 6 7 7 6 3 0 3 2 8 6 4 4 4 4 5 6 5 6 8 9 9 11 11 11 11 11 10 7 4 4 7 7 8 7 7 4 3 6 9 8 7 7 5 5 5 5 5 4 4 3 4 4
3 3 5 4 3 3 4 3 3 3 4 8 2 4 2 2 2 3 3 3 4 4 4 4 4 5 5 9 7 9 9 11 10 11 11 9 9 8 6 3 4 7 7 7 5 3 1 2 4 7 5 4 4 5 4 4 4 4 4 4 3 6
4 4 4 3 3 3 2 3 3 2 4 3 5 5 4 4 1 1 3 2 3 3 4 4 6 10 9 6 5 7 10 11 10 10 10 7 8 6 7 5 3 8 6 3 2 4 2 1 2 2 3 3 3 5 5 4 3 4 4 4 4 7
3 4 4 3 3 2 2 3 2 3 3 3 4 4 5 5 2 1 2 3 3 3 4 3 4 3 4 3 2 5 3 3 4 4 6 3 3 3 4 3 2 5 3 3 2 2 2 2 2 2 2 2 2 4 4 4 3 3 4 4 4 6
4 3 3 4 3 3 3 1 2 3 3 3 4 4 4 5 4 2 3 3 3 3 3 3 2 2 4 4 4 3 3 4 4 4 3 4 3 2 2 2 3 3 3 3 2 2 3 3 1 2 1 1 3 4 4 3 4 4 4 4 4 8
4 4 4 4 4 3 3 1 1 2 3 2 3 4 4 3 3 2 2 3 3 4 4 3 3 3 4 4 5 4 4 4 5 4 4 4 3 3 2 3 3 2 2 3 3 3 3 2 1 1 2 1 1 4 4 4 4 4 4 4 3 7
3 3 3 4 3 3 3 3 3 3 3 4 4 3 3 4 4 4 4 4 3 4 4 4 4 5 4 4 4 5 4 4 4 4 4 4 5 3 3 2 2 2 3 2 2 3 3 3 2 1 2 1 2 2 4 4 4 4 4 4 3 6
3 3 3 4 4 3 3 3 2 3 3 5 3 3 3 4 5 5 5 5 5 5 4 5 6 5 4 5 4 6 6 5 5 4 4 4 4 4 3 2 2 3 2 2 2 2 2 3 3 1 2 2 2 3 3 4 5 5 4 4 4 5
4 5 4 3 3 4 3 3 3 2 1 3 3 3 4 4 4 4 4 5 4 5 5 6 6 5 5 4 4 4 6 7 6 4 4 5 4 3 3 3 2 3 3 2 2 2 2 2 3 3 2 2 3 3 2 3 3 5 5 4 4 4
4 5 4 4 3 4 3 3 3 4 0 2 3 2 3 4 4 4 4 5 6 6 6 6 5 5 4 5 4 1 7 7 7 6 5 4 4 4 3 3 3 4 3 3 3 2 2 2 2 3 3 3 3 3 3 2 2 3 3 4 4 4
5 5 5 4 4 4 4 4 4 2 2 2 3 1 2 3 4 3 3 5 5 6 5 6 5 5 5 6 7 9 7 5 6 4 4 4 4 4 4 4 4 2 2 2 3 2 2 2 3 3 3 4 3 4 4 4 3 3 4 4 4 4
5 5 6 5 5 4 4 3 4 3 2 2 3 3 1 0 2 2 2 2 4 7 6 6 6 5 7 5 3 4 5 4 2 2 2 3 3 4 4 4 4 2 2 2 3 3 2 2 3 2 3 3 4 4 4 3 4 4 5 5 5 4
5 6 5 5 4 4 3 3 3 2 3 3 2 3 3 1 1 2 1 1 1 2 4 2 1 2 4 4 5 4 1 2 5 5 5 3 2 4 5 5 5 4 3 3 3 3 3 4 3 3 3 3 4 4 4 4 4 5 4 5 5 4
4 4 4 4 4 3 3 3 4 3 3 3 2 3 2 2 1 2 3 1 2 4 3 3 0 0 5 2 3 2 5 4 5 5 5 5 4 4 4 5 4 5 4 4 3 2 2 3 4 4 4 3 4 3 4 4 4 4 5 5 4 5
5 5 4 4 3 3 3 3 3 3 3 3 3 2 2 2 3 3 4 2 2 4 3 3 3 4 4 1 5 5 3 5 7 5 6 3 2 3 4 4 4 4 4 3 3 3 2 3 3 5 4 3 3 4 4 4 4 5 4 4 4 5
7 6 5 4 4 3 3 2 2 2 3 3 4 3 1 2 3 4 3 2 2 4 4 2 1 2 2 4 6 3 6 2 3 2 1 1 4 4 3 3 4 4 3 4 4 3 1 1 2 4 5 5 4 4 5 5 5 5 3 5 5 4
6 5 6 5 4 4 3 3 3 3 3 4 3 2 2 2 3 3 3 2 1 1 1 2 3 4 4 6 4 4 3 4 3 1 3 4 5 5 5 7 5 3 4 3 3 2 1 2 3 4 4 5 4 4 5 5 5 4 5 6 5 6
7 6 6 6 5 5 4 4 4 4 5 4 4 4 3 4 3 4 4 2 3 4 4 5 5 4 4 3 2 3 3 4 3 3 3 3 2 3 3 2 2 2 2 3 3 4 3 2 3 3 5 6 4 5 4 4 4 4 5 7 6 5
7 7 6 5 5 5 4 4 5 4 6 4 3 4 4 3 3 5 3 3 4 4 4 4 5 5 5 4 3 3 4 3 2 2 2 2 1 3 2 5 3 4 4 2 3 3 3 2 1 3 5 6 4 4 5 5 5 5 5 5 6 4
6 7 8 7 5 5 4 3 2 2 4 1 3 3 4 3 4 3 4 4 4 5 4 5 4 5 5 5 4 4 2 3 2 2 3 2 3 3 2 6 3 2 3 3 4 3 3 1 2 3 4 5 5 3 3 3 5 5 6 6 4 4
6 7 8 8 6 4 3 5 5 4 3 2 3 4 3 3 3 4 4 4 4 4 5 4 4 4 5 5 6 5 4 2 2 2 3 3 1 1 3 3 3 2 2 3 3 5 4 1 3 2 0 6 6 5 3 3 4 5 5 5 5 5
7 8 7 7 7 4 2 2 3 3 5 3 1 1 3 1 2 4 4 4 4 3 4 4 3 4 5 5 6 6 5 5 5 4 5 5 4 4 3 2 3 3 3 3 4 1 0 2 3 2 3 2 2 4 3 3 2 4 5 5 5 6
7 6 7 5 5 4 4 4 4 5 2 3 3 2 3 3 4 4 4 3 4 3 4 4 4 4 5 5 6 6 5 6 6 5 5 6 6 6 5 4 2 2 3 4 2 1 1 1 2 2 1 1 1 1 4 1 4 5 3 5 5 6
7 7 6 5 6 6 6 5 5 4 4 5 4 4 4 3 3 1 2 4 3 3 3 4 3 4 4 5 5 5 6 5 6 5 5 6 6 6 6 6 6 6 5 2 3 2 1 1 1 0 3 2 1 0 3 2 5 5 3 3 3 4
5 6 7 5 6 7 6 7 6 5 4 3 4 4 5 5 2 3 3 0 2 4 3 3 4 3 4 4 6 6 6 6 6 6 6 6 5 7 8 8 6 5 6 5 4 5 4 2 1 2 1 1 1 1 1 1 3 4 5 1 3 1
8 7 6 5 5 6 6 6 7 7 7 8 8 4 2 3 5 3 2 3 2 3 3 4 3 3 4 5 6 6 7 6 6 6 5 6 7 7 6 6 5 7 6 5 5 6 5 3 3 4 2 2 3 1 2 2 2 1 4 4 3 3
7 7 6 6 6 6 8 6 5 5 4 6 6 7 5 4 3 4 4 3 3 2 3 3 4 4 4 5 6 6 6 7 7 6 6 6 6 5 5 6 6 6 6 6 6 5 5 5 4 3 4 4 1 3 3 3 4 3 3 5 7 4
7 7 7 7 7 6 6 8 7 6 4 4 2 2 3 3 5 3 5 2 3 2 4 3 3 4 4 5 5 6 6 7 7 6 5 6 6 6 7 7 7 8 7 7 6 5 5 4 4 4 3 4 3 4 2 3 3 4 2 3 5 4
8 8 7 7 7 7 5 6 6 6 6 5 2 2 3 4 4 3 5 3 3 3 4 4 4 4 5 5 6 6 7 7 6 6 5 6 6 7 6 7 7 7 6 7 6 6 6 4 4 4 5 4 4 3 4 3 3 5 3 5 7 5
10 7 7 8 8 8 6 6 7 7 7 6 4 4 4 3 3 3 5 4 4 3 3 5 4 4 4 4 5 5 6 6 5 5 6 6 6 6 6 6 6 7 7 7 6 6 6 5 5 5 6 5 5 5 4 3 4 3 3 3 5 4
8 8 7 7 7 7 7 7 6 8 8 7 7 6 7 7 6 6 5 5 3 3 4 4 4 5 3 4 5 5 5 5 6 6 6 6 5 5 5 6 6 6 6 5 5 6 5 6 5 5 5 4 4 4 4 5 4 4 4 4 4 6
11 9 9 7 8 8 7 8 8 8 7 7 7 7 7 6 6 7 6 5 5 5 4 5 4 5 4 4 5 6 5 6 5 5 5 6 5 6 6 6 6 6 6 6 5 6 6 5 5 5 4 4 4 4 4 3 3 4 5 5 4 4
12 9 7 7 8 8 9 9 8 8 7 7 7 7 6 7 7 6 7 7 7 7 6 6 6 6 6 5 3 5 5 5 5 5 5 6 6 5 6 6 6 6 6 4 5 6 5 5 5 5 4 5 4 4 3 3 4 4 4 4 4 5
10 9 9 10 8 9 9 8 8 7 7 7 8 7 7 6 7 7 5 6 6 5 7 6 7 5 5 5 5 5 5 6 5 5 5 6 6 6 6 6 5 5 4 4 5 5 4 5 4 5 5 4 4 4 3 3 3 3 3 3 3 4
14 12 10 9 9 10 9 8 7 8 9 8 7 6 5 4 5 6 7 7 7 7 7 6 5 5 4 6 6 5 5 6 5 5 6 6 6 6 6 6 5 5 5 3 5 6 4 4 4 4 4 3 4 4 4 3 3 2 2 2 2 2
5 5 7 9 10 9 8 7 8 8 8 8 8 9 9 8 8 6 6 6 7 7 5 6 7 5 6 5 6 6 6 5 5 5 6 6 6 6 6 5 5 5 5 4 4 5 4 5 4 3 3 4 3 3 4 4 4 3 3 3 2 2
Wind_Direction
123 125 105 93 105 117 161 159 158 159 143 148 159 173 153 162 159 144 148 149 137 125 129 141 156 148 159 149 150 154 158 156 154 157 162 164 170 181 185 148 139 140 138 138 136 124 124 120 111 98 86 94 126 117 138 131 138 130 134 150 139 153
112 114 110 95 95 112 105 128 122 144 142 169 177 135 133 351 141 130 151 155 138 127 127 128 143 160 151 166 169 165 169 165 162 163 168 167 164 176 198 179 139 133 130 132 101 51 21 104 102 95 86 94 104 128 137 146 143 141 142 143 148 177
99 107 110 109 78 105 93 102 89 108 143 143 239 117 112 103 15 136 131 147 128 135 136 137 143 159 159 176 174 174 170 182 169 173 172 168 167 171 184 192 141 114 110 108 98 83 49 340 81 82 75 74 116 127 132 148 144 146 153 158 154 181
126 103 100 93 77 76 82 100 98 74 107 98 139 130 129 126 47 63 120 141 127 128 121 136 170 175 176 168 182 177 180 183 176 181 168 165 165 175 173 181 175 105 94 71 76 100 81 3 45 64 64 77 109 134 139 153 153 151 153 170 174 194
121 116 115 113 100 84 68 75 96 111 109 109 117 121 117 163 138 22 168 126 125 125 126 134 155 146 139 148 160 167 174 183 149 178 153 113 141 194 159 155 105 99 106 99 63 78 93 38 354 34 34 87 91 133 142 146 152 157 167 178 179 204
124 116 111 120 135 153 121 68 102 114 94 82 112 120 128 114 156 206 139 124 94 89 109 127 151 122 143 150 164 169 161 152 145 145 128 130 121 109 136 142 141 139 132 122 119 87 86 103 6 42 17 54 111 141 156 160 162 167 180 191 197 204
122 122 116 127 144 106 100 78 84 114 105 50 86 112 113 130 129 155 148 128 130 131 139 151 187 175 175 161 170 173 175 170 151 146 139 145 150 156 185 192 180 167 155 150 135 125 113 98 117 99 77 323 108 147 167 174 178 180 190 198 212 208
120 115 118 119 116 109 111 127 185 158 117 160 139 131 129 145 185 186 187 167 148 134 154 177 192 198 190 171 185 182 180 169 155 155 148 155 164 165 191 221 204 185 206 178 155 138 132 133 164 154 106 80 304 237 180 183 185 191 196 205 214 219
129 118 118 125 117 118 123 117 99 117 151 166 135 144 147 145 173 176 170 166 155 152 179 196 195 198 186 187 189 187 193 190 186 165 148 158 171 173 196 206 208 226 212 153 144 143 142 146 151 165 137 127 215 251 228 201 197 193 198 200 208 227
145 136 138 121 135 127 138 133 111 69 270 137 142 142 145 157 163 164 167 174 176 168 195 194 199 197 186 191 185 221 201 198 191 168 161 162 170 159 180 208 208 250 235 198 188 189 154 159 167 174 188 165 179 234 229 240 237 212 195 194 205 218
140 143 137 135 143 138 142 133 142 181 194 110 136 146 147 152 163 170 176 172 180 192 196 205 196 192 194 189 151 303 230 195 199 181 170 158 144 158 158 200 215 222 217 213 223 178 174 195 189 180 200 203 205 190 233 219 259 267 235 211 197 207
144 144 141 142 142 144 149 149 150 209 163 128 146 143 150 153 167 178 171 173 185 200 204 206 199 189 173 195 174 191 229 200 200 168 164 144 146 154 175 207 214 240 265 252 256 226 192 201 229 204 183 209 207 195 205 212 211 230 251 239 212 211
148 146 147 153 156 158 146 130 139 158 157 134 121 144 57 71 120 156 170 182 192 205 212 212 202 179 175 199 194 165 202 181 64 58 99 121 145 157 169 194 228 217 230 281 292 286 302 237 242 228 184 198 200 217 189 191 209 201 212 223 217 203
154 150 155 148 146 142 140 133 134 127 118 83 75 95 126 258 121 117 97 108 201 266 243 250 247 161 205 197 199 210 245 96 99 57 24 21 184 182 180 188 203 179 205 200 243 282 300 295 288 288 265 204 198 217 192 194 200 207 203 220 216 201
144 140 135 138 130 130 128 121 119 103 100 119 100 101 70 79 37 74 332 7 315 290 317 293 321 294 261 216 190 157 45 47 76 133 165 192 205 205 174 186 181 181 175 175 186 245 242 275 287 280 267 259 242 197 195 208 189 206 207 211 203 210
142 141 138 125 104 95 97 103 124 126 117 116 116 112 125 107 103 130 222 184 218 252 248 234 173 237 246 322 49 56 107 176 169 158 198 204 171 209 194 186 195 179 173 198 217 242 205 262 287 285 282 248 240 214 211 203 208 215 211 180 210 207
148 142 119 92 87 76 74 83 88 104 116 106 118 131 111 82 89 109 130 84 188 225 235 253 17 122 64 54 76 135 206 111 83 138 82 143 228 229 179 228 208 199 170 180 207 206 180 166 299 288 284 268 222 203 212 208 208 215 176 206 205 206
137 131 124 120 108 101 87 76 68 77 80 72 72 74 51 49 44 49 73 74 96 138 73 44 36 32 62 81 141 169 138 124 96 82 174 203 214 204 188 189 209 190 199 186 185 127 222 28 351 316 313 289 256 201 221 218 213 193 201 217 211 207
128 122 113 111 104 92 90 79 63 69 70 60 66 63 57 54 35 59 51 30 47 51 59 55 51 60 55 108 128 67 79 78 83 105 165 231 251 221 177 130 80 27 16 217 184 184 148 179 266 297 316 297 255 232 213 212 210 204 214 226 218 213
127 124 116 109 109 100 84 84 91 73 64 51 55 72 49 53 32 53 46 51 50 56 60 66 68 76 81 85 82 73 74 74 76 209 152 211 270 351 73 94 170 190 199 181 150 155 143 133 234 11 302 301 271 245 233 199 188 209 223 232 232 202
145 137 132 133 133 134 115 78 42 63 113 94 107 78 56 29 48 42 46 45 47 44 52 59 65 77 84 84 72 64 61 43 42 36 45 32 51 62 93 170 165 173 121 87 69 66 49 45 66 3 327 319 325 294 256 225 208 195 212 225 225 219
147 146 148 151 153 148 156 167 158 179 147 130 104 102 81 39 43 48 49 44 39 51 56 58 58 66 76 83 77 64 55 47 53 60 54 36 22 126 117 123 151 100 68 96 80 52 17 65 62 167 295 342 328 315 280 242 222 220 210 210 205 212
159 151 158 152 144 156 136 126 131 172 145 116 71 152 128 92 70 76 56 41 36 39 71 61 59 68 78 72 78 76 59 51 54 77 87 69 60 45 37 46 71 103 87 58 81 51 30 77 128 93 118 108 305 352 331 339 288 258 228 212 192 205
163 155 155 163 143 101 107 102 81 109 79 104 132 120 82 55 51 52 37 28 43 29 61 68 63 72 74 68 78 82 72 63 59 54 75 74 60 56 33 33 30 107 108 97 108 104 11 38 92 134 62 176 216 50 318 333 332 292 256 242 202 211
166 161 156 158 129 124 103 77 85 67 74 70 56 54 80 48 37 61 60 52 21 23 45 60 46 67 82 79 73 76 73 68 68 53 55 58 54 53 58 37 35 50 51 63 95 115 103 149 121 157 140 126 51 159 224 325 345 288 2 321 251 252
167 153 157 158 144 138 139 135 132 127 133 118 133 137 161 165 155 135 155 216 45 33 45 58 43 52 75 84 75 72 72 67 61 59 61 61 44 43 41 50 39 58 56 42 87 72 72 16 75 134 36 44 155 185 310 308 10 302 327 210 330 357
175 165 158 155 157 141 136 152 168 174 171 169 167 220 184 174 151 178 143 114 61 45 48 75 53 61 72 77 80 70 72 71 65 61 59 62 52 45 40 38 39 52 45 34 48 77 49 21 54 59 41 237 242 214 176 261 256 326 311 319 329 9
178 169 161 154 165 165 157 171 174 180 184 171 172 191 181 165 147 133 122 118 85 47 64 76 86 72 73 80 83 76 77 74 71 65 66 63 63 50 54 41 41 44 44 42 48 68 66 37 56 26 344 25 345 243 226 234 244 228 268 289 304 318
178 170 162 160 167 185 170 172 176 171 191 220 199 165 125 116 133 124 116 98 95 63 69 59 71 93 77 81 84 91 84 82 81 75 75 73 62 55 54 52 46 44 44 38 37 43 59 43 37 36 12 15 13 17 299 227 204 221 246 291 288 266
190 183 165 165 173 185 181 158 163 179 185 201 159 82 106 114 124 128 136 140 113 88 81 67 55 76 83 81 89 90 89 92 94 89 81 81 76 66 59 59 55 58 53 55 36 44 55 45 43 32 36 31 41 360 10 3 23 5 285 250 265 285
195 181 167 171 174 187 181 165 175 179 183 182 180 156 131 121 116 119 145 161 143 127 97 102 94 70 88 102 94 95 98 97 93 95 94 85 76 76 68 69 64 60 56 59 47 52 50 45 45 43 38 38 38 36 29 25 356 342 325 320 327 320
197 189 179 173 176 186 182 180 180 176 181 185 174 178 174 174 178 171 167 163 157 119 106 101 98 108 95 95 101 95 97 95 92 89 86 90 92 88 85 77 69 69 67 61 58 59 56 49 43 47 41 32 41 39 37 26 357 339 344 331 315 305
198 193 188 174 180 184 185 189 181 181 186 177 185 184 182 180 181 174 167 146 148 161 145 123 137 130 150 141 125 122 122 115 108 104 108 95 88 82 80 75 72 69 64 59 61 66 60 51 49 47 24 23 33 35 33 11 6 360 351 336 316 315
200 192 186 178 182 182 196 194 185 179 180 176 188 187 189 184 188 181 168 169 172 173 172 173 162 170 172 162 148 141 129 117 114 118 112 106 101 96 90 84 82 79 75 72 70 72 72 64 52 39 30 36 26 21 5 0 9 19 14 4 356 342
196 197 189 190 182 189 195 197 190 181 176 182 185 186 194 192 180 176 181 173 179 167 171 179 170 175 156 148 141 124 123 115 111 106 102 95 91 86 83 75 73 77 75 77 75 75 68 68 52 41 40 36 19 10 348 349 359 15 9 8 348 340
196 193 192 189 194 192 195 193 189 184 187 184 188 182 181 194 197 187 178 179 182 182 185 163 158 147 168 148 145 131 118 120 126 121 109 109 105 95 89 83 66 62 52 31 59 55 49 58 50 42 46 30 29 352 333 332 341 344 333 317 318 334
222 207 200 200 197 194 191 185 200 196 184 184 185 184 188 192 189 192 183 187 179 191 172 162 161 162 157 154 147 139 127 123 111 108 98 100 103 100 95 90 85 77 67 27 52 48 39 39 16 13 36 26 4 333 319 322 329 325 317 315 317 314